Vorticity
8 8 9 10 9 8 8 7 7 7 5 5 5 5 6 6 6 6 7 7 6 6 7 7 8 8 6 5 4 5 7 8 6 5 4 3 2 2 3 2 2 3 3 4 6 6 5 5 6 5 3 5 5 4 5 5 5 5 5 6 6 6 5 5 6 7 9 12 14 15 14 11 11 11 11 10 9 9 8 8 8 7 8 9 8 5
8 8 9 10 9 7 6 6 6 6 6 5 5 4 5 6 6 5 6 8 7 7 7 6 7 7 6 7 5 4 7 8 6 4 3 2 2 2 2 2 3 3 3 5 6 6 6 5 5 3 2 4 4 3 4 5 3 4 5 6 7 6 6 6 6 7 8 10 13 15 14 10 9 10 10 10 10 9 9 8 8 8 8 9 9 6
7 8 8 8 8 7 6 6 6 6 5 5 5 4 5 6 6 6 6 8 8 7 7 5 5 6 7 7 6 4 6 7 5 3 2 2 2 2 2 2 3 3 3 4 6 6 6 6 4 2 2 4 4 1 3 4 3 3 4 4 5 6 6 7 7 7 8 9 11 13 14 12 9 8 9 9 10 10 10 9 8 8 9 10 10 9
6 6 7 8 8 8 7 6 6 5 5 5 5 4 4 6 6 6 5 6 6 6 5 5 4 6 7 7 7 5 4 5 5 4 3 3 2 2 2 2 2 3 3 3 5 5 6 5 3 1 2 5 4 0 2 4 3 3 4 3 3 3 4 6 7 8 8 8 10 11 13 13 11 9 7 8 9 9 9 9 9 8 9 9 9 8
5 5 6 7 7 8 7 6 6 5 4 5 5 5 5 6 6 5 4 4 5 4 5 5 5 8 9 8 8 6 3 4 5 5 4 3 3 3 2 2 3 3 2 4 5 5 4 3 3 1 2 5 4 1 1 4 4 3 5 4 2 2 3 4 6 7 8 9 9 11 12 12 12 11 8 7 7 7 8 8 8 8 9 8 8 7
4 4 5 6 7 8 8 7 6 5 5 5 5 5 5 6 6 4 3 4 5 4 5 5 6 11 12 10 10 7 5 6 4 3 4 3 2 2 2 2 3 2 3 5 4 3 3 3 3 2 2 5 5 1 0 4 4 2 5 5 2 2 2 4 5 5 7 8 9 10 10 10 12 12 10 8 7 7 8 8 8 8 8 8 8 8
4 4 4 4 5 7 8 8 8 6 5 5 5 4 5 6 5 3 3 4 5 5 6 6 6 10 14 14 11 5 5 8 6 4 4 2 1 1 2 1 2 3 4 4 3 2 3 4 3 2 3 5 4 1 1 5 4 1 4 5 2 1 1 3 5 5 5 6 7 9 10 11 11 12 11 9 9 8 8 8 7 7 7 7 7 7
6 6 6 6 6 6 7 8 9 8 6 6 6 5 5 5 4 4 3 4 6 6 7 8 6 6 11 18 14 5 5 7 7 6 4 2 2 1 1 3 3 4 3 2 3 2 2 2 3 3 5 5 3 1 3 5 4 1 3 5 2 0 1 2 2 5 5 4 5 6 8 11 11 12 11 9 9 9 9 9 7 6 6 6 7 7
4 5 5 6 6 5 6 6 7 8 8 7 6 5 5 5 5 4 3 4 5 6 7 7 6 4 7 15 12 5 6 9 8 8 4 2 2 1 2 3 3 3 2 2 2 1 2 3 5 6 6 4 2 2 5 6 2 -1 2 6 3 -1 1 2 1 3 5 4 5 5 6 8 10 12 13 12 11 9 8 9 8 7 6 5 6 6
2 3 4 4 5 5 5 5 6 7 8 8 7 7 6 4 4 4 3 4 4 5 6 6 6 4 5 11 10 3 5 8 8 7 6 5 4 3 2 2 2 2 2 1 1 2 3 4 5 6 4 3 2 4 6 5 1 -1 1 7 5 -1 -1 3 2 2 4 4 5 6 5 6 8 10 12 13 13 11 8 7 8 7 6 5 5 5
2 2 3 4 4 5 6 6 6 6 7 9 8 8 8 6 5 4 3 3 4 5 5 6 5 3 5 12 13 8 5 5 6 5 5 6 4 3 2 1 2 2 3 3 3 3 3 4 4 3 3 3 5 6 6 2 -1 -1 2 6 7 1 -3 1 2 2 4 3 4 7 7 6 6 7 10 13 14 14 12 8 7 7 7 6 5 6
2 2 3 3 4 4 5 6 6 6 6 7 7 8 9 9 8 6 4 3 3 3 2 4 5 3 3 5 7 9 8 6 7 6 5 5 4 3 3 3 3 3 4 4 3 2 2 3 3 3 4 5 5 4 3 0 -2 0 3 5 6 2 -2 0 1 2 4 3 2 5 6 7 7 6 7 9 12 14 15 13 9 7 7 7 6 5
3 3 3 2 2 2 3 3 4 5 6 6 6 7 7 8 9 9 8 5 3 2 0 2 4 2 0 1 4 8 9 8 7 6 6 6 5 4 3 3 3 3 3 3 2 2 3 4 3 4 5 4 3 3 1 0 -1 2 5 5 3 0 0 2 0 1 5 4 2 4 5 5 7 9 8 7 8 10 14 15 13 10 8 7 7 6
3 3 2 2 3 3 3 4 4 5 6 6 6 7 7 6 7 8 9 9 7 3 1 3 3 -0 -0 3 6 8 9 8 6 5 7 7 6 6 4 4 4 4 4 3 3 3 3 3 3 4 4 3 3 2 1 1 2 5 5 3 0 -1 3 5 0 0 5 5 3 2 3 3 5 9 11 11 9 7 9 13 15 13 10 9 7 7
1 1 2 4 4 4 5 5 6 6 5 5 5 5 4 4 5 7 7 8 9 7 5 4 1 -2 -0 1 2 4 6 5 4 4 4 5 4 4 4 5 4 3 3 3 3 3 3 3 3 3 3 2 2 1 2 3 4 4 2 0 -1 0 5 5 1 0 3 6 4 1 2 4 4 7 9 13 14 11 8 9 13 14 11 10 8 7
3 3 4 6 5 4 6 4 3 4 3 3 4 2 2 5 6 7 6 6 7 8 8 7 3 -0 0 1 1 2 4 4 5 5 4 3 3 2 3 4 3 2 3 4 4 4 4 3 3 3 2 2 3 4 5 4 2 0 -0 0 1 2 6 5 2 0 2 7 5 -0 2 5 5 5 6 10 15 17 12 7 10 13 11 10 10 9
8 9 8 8 8 8 9 7 5 6 5 4 1 1 5 7 7 7 7 7 7 7 9 8 6 5 4 3 4 3 2 3 4 4 3 3 3 3 3 4 3 2 3 4 4 4 4 3 3 4 4 4 4 3 3 1 -0 0 1 1 2 4 6 5 2 1 5 8 4 0 3 5 5 4 5 7 12 19 17 9 7 10 10 9 10 10
7 9 7 3 5 6 5 7 6 4 4 3 2 4 6 5 3 4 4 5 6 7 8 7 6 8 6 5 6 6 5 4 3 3 3 3 4 4 5 5 4 3 3 4 4 4 4 3 2 2 2 2 1 0 1 0 1 2 2 2 4 5 5 3 3 5 7 6 2 0 4 6 5 3 4 8 12 18 19 13 7 7 10 8 7 8
5 5 7 4 2 4 4 4 2 -0 0 3 4 6 5 3 4 4 4 4 5 5 6 6 6 6 6 5 5 5 5 4 4 4 4 4 4 4 4 4 3 3 3 3 3 2 2 2 2 2 2 1 2 2 2 3 3 3 4 5 5 5 4 4 6 7 6 3 1 2 5 7 5 4 5 9 15 18 18 14 7 6 9 9 7 8
14 10 11 9 4 3 4 0 -1 4 8 8 9 9 7 7 6 4 4 4 5 4 3 4 5 5 6 7 7 6 6 6 5 5 5 5 4 4 4 4 4 5 6 6 7 7 6 6 6 6 6 6 6 6 6 6 6 7 8 7 6 5 6 6 6 5 4 3 3 5 7 6 4 6 9 10 15 19 19 16 10 6 8 10 9 9
13 11 8 9 6 0 -1 2 7 15 16 12 11 10 7 7 7 8 8 5 5 6 4 4 4 3 4 5 5 6 6 6 6 7 6 6 6 6 6 6 7 7 6 6 6 6 7 8 8 8 8 7 7 7 7 7 7 8 7 6 6 6 7 6 4 4 4 4 5 7 8 5 3 6 11 13 16 20 19 15 13 9 7 9 9 8
11 16 15 13 12 7 6 10 10 9 8 8 6 5 5 6 6 7 5 3 5 6 5 6 3 2 5 5 4 5 4 4 4 4 4 4 4 4 3 3 4 4 3 3 3 4 5 6 7 7 7 7 7 6 6 7 7 6 6 6 6 6 6 4 4 6 7 7 8 8 5 3 3 7 14 19 19 21 21 14 10 10 8 9 10 8
13 19 19 15 13 13 10 9 6 2 4 6 3 1 3 3 2 4 5 7 9 6 5 6 -1 -1 7 6 4 5 5 5 6 5 5 5 4 4 3 4 5 6 6 5 4 4 5 5 5 5 6 6 6 6 6 6 6 5 5 6 6 6 6 5 7 8 8 8 8 5 3 3 5 13 21 22 18 20 22 14 6 7 8 9 11 10
3 5 11 12 13 12 7 4 5 3 1 0 1 5 7 5 6 9 9 9 9 2 3 5 -5 -6 4 5 4 6 5 5 7 6 7 7 7 7 6 6 7 6 6 5 5 6 7 6 4 4 6 6 7 6 5 4 5 6 6 7 7 8 7 7 8 8 7 7 4 2 3 4 12 24 27 20 16 19 20 13 6 6 7 7 10 11
4 4 7 9 10 9 6 5 4 4 5 6 9 11 11 11 12 9 7 9 6 0 4 4 -7 -7 5 7 5 6 6 6 6 6 7 6 5 6 5 4 4 3 4 4 4 4 5 5 5 6 9 9 8 7 6 6 7 7 8 8 8 9 8 7 7 6 5 3 1 3 6 12 26 34 23 11 12 17 17 14 10 9 10 11 14 15
8 8 8 8 8 6 6 8 9 11 15 15 14 13 13 15 14 12 12 10 4 3 10 8 0 2 8 7 5 5 4 4 4 3 5 5 4 5 4 3 3 5 6 5 4 3 3 4 6 8 10 9 9 8 8 8 7 7 7 7 7 6 5 4 3 1 1 2 6 12 17 26 36 28 9 3 8 10 11 12 12 13 13 12 13 14
6 7 8 7 10 10 8 8 8 8 7 8 9 9 10 12 11 11 9 2 2 9 11 6 5 9 9 7 8 8 5 6 5 3 4 6 6 6 6 6 6 5 5 5 6 7 7 8 8 7 5 4 6 8 7 7 6 5 5 4 3 2 1 1 2 4 9 14 20 24 25 30 30 16 3 3 5 6 8 9 10 12 10 8 10 11
4 6 8 8 11 13 12 10 8 3 1 4 5 3 4 6 7 8 5 2 7 11 5 4 11 14 12 10 10 9 10 11 9 7 8 8 8 8 8 9 8 6 5 5 7 9 9 9 6 3 2 2 3 5 5 5 4 3 3 2 1 2 4 8 12 18 23 26 24 20 19 21 17 9 5 5 4 7 10 9 9 11 10 9 10 9
9 6 5 6 8 9 11 14 14 10 8 8 7 5 3 3 2 3 4 7 11 9 6 10 11 8 8 10 9 7 9 11 10 9 10 9 7 7 7 7 7 7 6 5 4 6 7 6 4 4 4 3 2 1 2 3 2 2 3 4 7 12 15 19 23 24 24 21 16 13 12 12 9 6 7 7 7 9 11 12 13 16 17 17 15 11
19 16 13 11 11 9 6 6 8 9 8 9 11 11 9 8 7 5 3 3 4 5 7 10 8 6 7 11 13 8 6 11 11 7 8 8 4 2 4 6 6 6 6 6 5 4 5 6 6 5 5 4 3 2 1 2 5 9 13 16 17 19 20 20 19 16 13 11 10 10 9 8 5 4 5 7 7 7 8 10 12 15 20 22 20 16
15 16 16 15 18 19 15 12 12 10 8 9 10 8 7 10 11 10 10 8 6 6 8 8 10 9 4 6 14 10 1 5 10 8 7 9 7 6 6 7 7 6 5 5 4 3 4 3 3 2 2 2 2 3 5 10 16 21 23 22 18 15 13 11 9 6 6 7 8 8 8 7 6 5 6 8 6 4 3 5 8 11 15 19 21 19
15 14 9 5 7 10 12 15 15 16 18 16 7 0 2 6 7 10 13 13 12 14 14 12 14 16 10 6 12 12 3 2 7 8 6 5 5 5 4 4 5 5 4 4 2 2 2 1 1 2 2 4 8 13 17 19 18 18 17 14 11 9 8 6 4 3 4 7 7 7 6 6 6 6 7 6 3 1 1 2 7 9 10 13 17 18
2 8 10 11 8 5 5 6 9 15 18 12 7 8 14 14 10 8 6 5 7 11 11 11 14 20 22 17 18 22 20 17 17 16 14 11 9 9 9 9 7 5 6 7 6 6 7 8 9 11 13 17 19 18 16 13 10 10 9 9 9 9 8 7 6 6 7 8 8 7 6 6 7 7 7 3 0 -1 -1 2 8 11 9 10 12 14
-9 -13 -8 -1 0 5 11 11 13 12 1 -3 8 16 17 14 12 10 7 7 10 10 9 12 14 16 19 18 16 17 16 16 17 17 16 16 15 16 17 16 15 14 14 14 14 16 18 17 18 19 20 18 13 9 7 6 6 5 6 8 9 8 7 8 9 9 9 8 7 7 7 7 8 7 5 2 0 -1 1 7 12 13 10 8 9 10
12 5 0 -3 -7 -5 -3 -2 3 1 -9 -1 15 12 6 10 13 13 12 12 15 14 13 16 18 17 15 12 8 7 8 8 8 8 10 11 11 12 13 13 15 16 14 13 14 15 15 15 16 15 13 8 4 4 5 4 4 4 6 7 6 5 6 7 10 11 10 9 7 6 7 6 7 6 3 0 -2 -1 3 7 8 7 6 6 7 8
9 13 18 21 18 12 3 -4 -3 -5 -8 1 6 2 5 14 16 15 16 15 14 12 9 8 9 10 11 11 10 13 15 11 5 7 10 8 8 11 13 12 12 11 9 9 9 11 12 11 10 7 3 1 1 4 5 5 4 5 5 4 4 4 4 5 8 10 9 8 7 6 6 6 5 4 1 -2 -3 -1 3 4 4 5 6 7 8 10
5 4 7 13 19 22 23 21 17 11 7 1 -5 -3 7 13 11 9 10 12 9 3 1 0 1 2 5 9 10 10 9 7 7 11 13 10 11 13 13 13 10 7 6 6 7 8 8 5 3 0 -2 -2 2 5 6 5 5 4 4 5 4 3 3 4 7 8 7 8 8 6 5 4 3 1 -1 -2 -0 2 4 4 5 8 8 9 11 11
10 8 2 -0 1 3 8 15 14 12 12 6 -2 -3 1 5 7 1 0 8 8 0 0 1 0 1 2 3 5 4 3 5 4 5 7 7 7 8 10 12 11 7 6 5 5 5 3 2 2 0 -1 1 4 6 5 4 4 4 5 5 3 2 2 4 4 4 5 8 7 5 4 2 -1 -2 -2 -0 3 5 5 5 6 6 6 7 9 9
2 4 2 1 2 -0 -1 3 4 4 8 8 5 1 -2 2 7 4 7 16 8 -3 -1 -2 -7 -4 -2 -2 -1 -3 -2 5 4 -1 0 1 0 0 2 4 4 3 4 2 1 0 0 0 -1 -2 -1 0 2 4 4 3 3 3 4 4 3 3 3 3 2 4 6 7 7 6 5 2 -1 -2 -0 2 4 4 5 5 5 5 6 8 10 9
9 9 7 4 4 4 3 3 2 3 8 10 10 9 4 2 2 0 9 21 15 6 7 2 -5 -4 -3 -3 -1 -4 -3 5 4 -2 -1 3 3 0 -1 -1 -1 -1 1 3 4 4 4 4 5 4 4 5 5 5 5 4 4 5 4 4 3 3 4 4 4 5 5 5 5 5 4 2 0 1 2 2 3 4 5 5 5 5 6 8 9 8
14 14 14 12 11 9 6 5 5 7 10 9 7 6 3 3 2 -4 -3 6 10 10 11 5 -0 3 4 2 1 -0 1 6 4 -1 -1 2 4 2 1 3 2 -0 -0 2 3 5 6 7 9 9 9 9 9 8 8 8 7 6 6 6 6 6 5 5 5 6 5 5 5 5 4 3 2 2 1 2 3 4 5 5 5 5 6 7 6 5
11 12 13 14 14 15 14 16 18 17 15 13 11 8 2 0 5 7 5 3 2 6 11 8 2 4 10 11 10 7 6 8 8 8 6 5 6 5 2 2 4 3 3 2 2 3 5 6 7 8 8 8 7 6 6 5 4 4 4 3 3 3 2 3 3 2 2 2 3 3 3 2 0 -1 -0 1 3 3 3 4 3 2 4 4 4 5
11 12 12 10 9 13 15 14 13 16 21 23 22 21 15 4 1 7 15 16 12 11 16 17 12 7 7 11 16 18 15 11 10 11 12 11 12 12 10 7 5 3 2 4 5 5 4 3 2 2 2 3 3 5 5 4 4 4 4 4 5 4 4 4 3 2 2 3 4 3 2 1 -0 -1 -0 -0 1 2 3 3 1 -0 -0 1 2 4
7 5 7 8 9 12 13 11 12 20 31 32 25 24 27 26 21 21 27 33 35 33 32 33 33 30 24 20 22 27 31 32 29 27 25 22 19 18 20 20 19 16 12 10 10 10 9 8 6 3 1 1 1 1 1 2 2 2 2 4 3 2 2 2 2 3 5 5 5 5 5 4 3 2 -0 -2 -1 2 4 4 3 1 0 1 2 4
7 5 6 9 10 9 7 7 8 9 11 13 13 13 15 17 17 14 11 11 13 15 18 21 24 28 28 24 20 18 19 22 22 20 20 19 17 17 19 22 26 28 28 26 23 21 19 17 16 15 14 13 11 11 10 8 6 5 4 1 -1 -0 1 2 2 4 5 5 6 6 4 3 2 0 0 2 5 9 10 10 9 7 7 7 8 10
5 6 5 4 4 4 3 4 5 4 2 4 8 9 7 4 3 3 1 -3 -6 -6 -4 -2 0 3 5 5 4 1 -1 -1 0 3 6 8 11 15 17 16 17 18 21 24 24 23 22 21 22 21 19 19 20 20 20 19 20 20 19 17 17 16 13 12 12 12 10 9 8 7 6 7 7 8 11 14 16 16 16 17 18 19 20 21 21 20
3 4 5 3 2 1 3 4 4 5 6 5 5 6 7 5 5 6 7 6 5 4 4 2 2 3 2 1 2 2 2 2 1 2 3 3 5 8 8 5 4 4 7 12 15 20 23 23 24 23 23 23 23 23 23 23 24 24 24 24 24 23 23 24 22 20 20 20 20 21 22 21 21 22 22 21 20 20 20 20 22 24 27 28 28 27
3 3 3 4 4 3 3 3 3 3 4 5 5 5 5 5 5 5 5 5 4 5 6 5 4 3 1 1 2 2 3 4 3 3 4 4 5 6 4 3 2 2 4 7 9 11 12 13 16 18 17 16 14 13 13 11 10 11 11 13 15 16 19 20 20 23 26 26 27 28 28 28 29 27 25 24 23 22 23 25 28 30 31 31 30 29
3 3 1 1 2 2 1 2 3 5 5 6 6 5 4 5 6 5 5 5 4 3 4 3 3 4 4 4 4 4 4 5 6 6 6 7 8 9 8 8 8 7 8 10 10 10 11 11 8 -1 -7 -8 -6 -3 -1 2 5 8 10 13 16 17 18 20 22 23 23 23 25 26 24 24 24 21 21 23 23 24 26 27 25 25 26 27 26 26
1 3 5 5 6 6 5 4 4 4 3 3 4 5 6 5 5 4 2 3 3 4 4 4 3 4 4 4 4 3 3 4 5 6 5 6 8 9 8 8 9 8 9 10 11 9 5 -2 -13 -20 -17 -7 3 9 9 10 12 15 16 17 17 16 18 19 16 14 15 17 16 14 15 17 16 17 22 22 21 26 26 20 22 28 26 20 19 21
4 5 7 9 11 10 8 8 8 7 5 3 2 5 6 5 5 6 6 6 6 5 5 5 5 4 3 4 4 4 4 3 3 3 3 4 5 6 7 6 6 5 3 3 2 -2 -8 -13 -15 -10 -1 6 11 15 14 12 13 15 16 15 13 10 10 8 6 6 7 6 6 9 17 20 18 17 17 14 17 21 13 11 28 31 11 3 15 20
Height
5821 5822 5824 5826 5828 5830 5831 5833 5834 5835 5837 5839 5841 5842 5843 5845 5847 5849 5851 5852 5853 5854 5856 5857 5859 5862 5863 5863 5863 5864 5865 5867 5868 5868 5869 5869 5870 5871 5871 5871 5872 5872 5873 5873 5873 5873 5873 5873 5872 5872 5872 5872 5871 5871 5870 5869 5869 5868 5867 5866 5864 5863 5862 5860 5860 5859 5858 5856 5855 5854 5853 5852 5851 5850 5849 5847 5847 5846 5845 5844 5844 5843 5842 5841 5840 5839
5818 5820 5822 5824 5825 5827 5828 5830 5831 5833 5835 5837 5839 5840 5841 5843 5845 5846 5848 5850 5851 5852 5853 5854 5856 5859 5861 5861 5861 5862 5864 5865 5866 5866 5867 5868 5868 5869 5869 5869 5869 5870 5870 5871 5872 5872 5872 5871 5870 5870 5870 5870 5869 5869 5868 5867 5867 5866 5865 5864 5863 5861 5860 5859 5857 5856 5855 5854 5853 5852 5851 5850 5849 5849 5847 5845 5844 5843 5842 5842 5841 5841 5840 5839 5838 5836
5816 5818 5819 5820 5822 5824 5826 5827 5829 5831 5833 5834 5836 5838 5839 5840 5842 5843 5845 5847 5848 5849 5851 5851 5853 5857 5858 5859 5859 5859 5861 5863 5863 5864 5865 5866 5867 5867 5867 5867 5867 5868 5868 5868 5869 5870 5870 5869 5868 5868 5867 5867 5867 5867 5866 5866 5865 5864 5863 5862 5861 5860 5858 5857 5855 5854 5853 5852 5851 5850 5849 5848 5847 5846 5845 5844 5842 5841 5839 5838 5838 5838 5837 5837 5835 5834
5813 5815 5816 5817 5819 5821 5823 5824 5827 5828 5830 5831 5833 5835 5837 5838 5839 5840 5842 5844 5846 5847 5848 5848 5850 5854 5856 5856 5857 5857 5858 5861 5861 5862 5864 5864 5865 5865 5865 5865 5865 5866 5866 5866 5866 5867 5867 5867 5866 5866 5865 5865 5864 5864 5864 5863 5862 5862 5861 5860 5859 5858 5857 5855 5854 5852 5851 5849 5848 5848 5847 5846 5845 5844 5843 5842 5841 5839 5837 5836 5835 5834 5834 5834 5833 5831
5810 5811 5813 5815 5817 5818 5820 5822 5824 5826 5827 5829 5831 5832 5834 5835 5836 5837 5839 5841 5843 5843 5844 5845 5846 5850 5853 5853 5855 5855 5856 5858 5858 5860 5862 5862 5863 5862 5862 5863 5863 5863 5864 5864 5864 5864 5864 5864 5864 5863 5863 5862 5862 5861 5861 5860 5860 5859 5858 5857 5857 5856 5855 5853 5852 5850 5849 5847 5846 5845 5844 5843 5842 5841 5841 5840 5838 5837 5835 5834 5832 5831 5831 5831 5830 5828
5807 5808 5810 5812 5814 5816 5817 5819 5821 5823 5824 5826 5828 5830 5831 5832 5833 5835 5836 5838 5840 5840 5842 5843 5842 5846 5850 5850 5852 5853 5853 5855 5856 5857 5860 5860 5859 5860 5860 5860 5860 5861 5862 5861 5861 5861 5861 5861 5861 5860 5860 5859 5859 5859 5858 5858 5857 5856 5855 5855 5854 5854 5852 5851 5849 5848 5846 5845 5843 5842 5841 5840 5839 5838 5838 5837 5835 5834 5833 5831 5830 5829 5828 5827 5827 5825
5804 5805 5807 5809 5811 5813 5815 5816 5818 5820 5821 5823 5825 5827 5828 5829 5831 5832 5833 5835 5836 5837 5839 5840 5839 5841 5846 5848 5850 5851 5851 5852 5853 5855 5857 5857 5856 5856 5857 5858 5858 5858 5858 5858 5858 5859 5859 5858 5858 5857 5857 5856 5856 5856 5855 5854 5854 5853 5853 5852 5851 5851 5850 5849 5847 5846 5844 5842 5841 5839 5838 5837 5836 5835 5834 5833 5832 5831 5830 5829 5827 5826 5824 5824 5823 5823
5801 5803 5805 5807 5809 5811 5812 5814 5815 5817 5818 5820 5822 5824 5825 5827 5828 5829 5830 5832 5833 5835 5836 5838 5837 5836 5841 5847 5848 5848 5848 5849 5851 5853 5854 5854 5853 5853 5854 5854 5855 5855 5855 5855 5855 5855 5855 5855 5855 5855 5854 5854 5853 5853 5852 5851 5851 5850 5850 5849 5848 5848 5847 5846 5845 5843 5842 5840 5838 5837 5835 5834 5833 5832 5831 5830 5829 5828 5827 5825 5824 5822 5821 5820 5820 5819
5798 5799 5801 5803 5805 5807 5809 5810 5811 5813 5815 5816 5819 5820 5822 5823 5825 5826 5827 5828 5830 5831 5833 5835 5835 5833 5836 5844 5846 5844 5845 5846 5849 5851 5851 5851 5851 5851 5851 5851 5851 5851 5851 5851 5851 5851 5851 5851 5852 5852 5851 5851 5851 5850 5849 5848 5847 5847 5846 5846 5845 5845 5844 5843 5842 5840 5839 5837 5836 5834 5833 5831 5830 5829 5828 5827 5826 5825 5823 5822 5821 5819 5817 5816 5815 5815
5794 5795 5797 5799 5801 5803 5805 5806 5808 5810 5811 5813 5815 5817 5818 5820 5821 5822 5823 5825 5826 5828 5830 5832 5834 5830 5830 5838 5843 5841 5842 5844 5846 5848 5848 5848 5848 5848 5848 5848 5848 5848 5848 5848 5848 5847 5847 5847 5847 5847 5847 5847 5847 5847 5846 5845 5844 5843 5843 5842 5842 5841 5840 5840 5839 5837 5836 5835 5833 5832 5830 5829 5827 5826 5824 5823 5823 5822 5820 5819 5817 5816 5814 5812 5811 5811
5790 5792 5793 5795 5798 5800 5801 5803 5804 5806 5807 5810 5811 5813 5815 5816 5818 5819 5820 5822 5823 5824 5827 5829 5832 5830 5825 5830 5840 5840 5839 5841 5842 5844 5845 5845 5845 5844 5844 5844 5844 5845 5845 5845 5845 5844 5844 5843 5843 5843 5843 5843 5843 5843 5842 5841 5840 5840 5840 5839 5838 5838 5837 5836 5835 5834 5833 5832 5830 5829 5827 5826 5824 5822 5821 5820 5819 5818 5817 5815 5813 5812 5810 5808 5807 5806
5786 5788 5790 5792 5794 5796 5798 5799 5801 5802 5804 5806 5807 5809 5810 5811 5813 5815 5817 5819 5819 5821 5824 5825 5828 5828 5821 5824 5834 5838 5838 5838 5838 5840 5841 5842 5841 5841 5840 5840 5840 5841 5841 5841 5841 5841 5840 5840 5840 5839 5839 5839 5838 5838 5837 5837 5836 5836 5836 5835 5835 5834 5833 5832 5831 5830 5829 5828 5827 5826 5824 5823 5821 5819 5817 5816 5815 5814 5813 5811 5809 5807 5806 5804 5803 5801
5783 5784 5786 5788 5790 5792 5794 5795 5796 5798 5799 5801 5803 5804 5805 5807 5809 5811 5814 5814 5815 5818 5819 5820 5823 5824 5821 5822 5828 5832 5836 5836 5835 5836 5837 5837 5838 5837 5836 5836 5837 5837 5836 5836 5836 5836 5836 5836 5836 5836 5835 5835 5834 5834 5833 5833 5832 5832 5832 5831 5831 5830 5829 5828 5827 5826 5825 5824 5823 5822 5820 5819 5817 5816 5813 5812 5810 5809 5808 5806 5805 5803 5801 5800 5798 5797
5777 5779 5781 5784 5785 5787 5789 5791 5792 5793 5794 5796 5799 5800 5801 5803 5804 5807 5809 5809 5812 5814 5814 5815 5818 5819 5820 5822 5822 5825 5831 5833 5832 5832 5833 5833 5833 5833 5832 5832 5832 5832 5832 5832 5832 5832 5832 5832 5831 5831 5831 5831 5830 5830 5829 5828 5828 5827 5827 5827 5826 5826 5825 5824 5823 5822 5820 5820 5819 5817 5816 5814 5813 5811 5810 5808 5806 5804 5803 5801 5800 5798 5796 5795 5794 5792
5771 5773 5776 5779 5780 5783 5785 5787 5788 5789 5789 5791 5793 5795 5797 5799 5801 5802 5803 5805 5808 5810 5810 5810 5812 5814 5817 5820 5818 5820 5825 5829 5830 5829 5828 5829 5829 5828 5828 5827 5827 5827 5827 5827 5827 5827 5827 5827 5827 5826 5826 5826 5826 5826 5825 5824 5823 5822 5822 5822 5821 5821 5821 5819 5818 5817 5815 5815 5814 5813 5811 5809 5808 5806 5805 5803 5801 5799 5797 5796 5794 5793 5791 5789 5788 5787
5766 5768 5772 5773 5775 5779 5780 5781 5782 5783 5785 5786 5787 5790 5794 5796 5797 5796 5797 5801 5803 5804 5804 5806 5808 5810 5813 5815 5815 5816 5819 5823 5824 5824 5824 5824 5824 5824 5823 5823 5822 5822 5822 5823 5823 5822 5822 5822 5822 5821 5821 5821 5821 5821 5820 5819 5818 5818 5817 5816 5816 5816 5816 5815 5813 5812 5810 5810 5809 5807 5805 5803 5802 5801 5799 5798 5797 5795 5792 5790 5789 5787 5786 5784 5783 5782
5761 5763 5766 5768 5770 5773 5774 5775 5777 5778 5780 5781 5783 5788 5791 5792 5791 5791 5792 5796 5796 5796 5799 5802 5804 5807 5810 5810 5811 5813 5814 5815 5816 5818 5819 5820 5820 5819 5818 5818 5818 5817 5818 5818 5818 5818 5818 5817 5816 5816 5816 5815 5815 5815 5815 5814 5813 5813 5812 5811 5811 5811 5810 5809 5808 5807 5805 5804 5803 5802 5800 5798 5796 5795 5793 5792 5791 5789 5787 5785 5783 5782 5780 5779 5777 5776
5755 5755 5758 5762 5764 5767 5768 5769 5770 5773 5774 5776 5780 5785 5785 5784 5784 5785 5786 5789 5790 5790 5794 5799 5801 5804 5806 5805 5806 5809 5809 5809 5810 5811 5812 5813 5812 5812 5813 5814 5814 5814 5814 5814 5815 5814 5813 5812 5812 5811 5810 5810 5809 5809 5809 5808 5808 5808 5808 5807 5806 5805 5805 5804 5803 5801 5800 5799 5797 5796 5794 5792 5791 5789 5788 5786 5785 5783 5781 5779 5777 5776 5775 5773 5771 5770
5748 5749 5752 5756 5758 5760 5761 5762 5764 5768 5770 5772 5775 5778 5778 5777 5778 5779 5781 5783 5785 5785 5788 5795 5797 5798 5802 5802 5801 5803 5804 5804 5804 5805 5805 5805 5804 5805 5807 5808 5809 5809 5809 5810 5810 5810 5809 5808 5807 5806 5806 5805 5805 5804 5803 5802 5802 5803 5803 5802 5801 5800 5799 5798 5797 5796 5794 5793 5791 5790 5789 5787 5786 5784 5782 5780 5779 5777 5775 5773 5772 5770 5769 5767 5766 5764
5742 5743 5746 5750 5753 5753 5754 5756 5760 5764 5765 5766 5769 5770 5771 5772 5772 5774 5775 5777 5780 5780 5782 5788 5790 5792 5798 5800 5798 5798 5799 5799 5799 5799 5799 5798 5797 5798 5799 5800 5801 5803 5804 5804 5804 5804 5803 5802 5801 5800 5800 5800 5800 5799 5797 5797 5797 5797 5796 5795 5795 5794 5793 5792 5791 5790 5788 5787 5785 5784 5783 5782 5781 5780 5777 5775 5773 5770 5769 5767 5766 5764 5762 5761 5760 5758
5734 5736 5739 5743 5745 5746 5748 5752 5756 5758 5758 5760 5762 5763 5766 5767 5767 5768 5769 5771 5773 5774 5776 5779 5781 5788 5795 5796 5794 5794 5794 5795 5794 5793 5793 5792 5791 5791 5791 5792 5794 5795 5796 5797 5797 5796 5796 5795 5794 5794 5793 5793 5792 5791 5790 5791 5791 5790 5789 5789 5788 5787 5786 5785 5785 5784 5782 5780 5779 5778 5777 5776 5775 5774 5772 5769 5767 5764 5762 5761 5759 5758 5756 5754 5753 5752
5728 5729 5732 5735 5737 5740 5745 5748 5749 5749 5750 5753 5755 5757 5760 5762 5761 5761 5761 5764 5766 5767 5770 5771 5773 5783 5791 5791 5791 5790 5789 5789 5788 5787 5786 5785 5786 5786 5786 5786 5787 5787 5788 5788 5788 5788 5788 5787 5787 5786 5786 5784 5784 5783 5783 5783 5784 5783 5782 5782 5781 5781 5780 5779 5778 5777 5776 5774 5773 5771 5771 5770 5769 5768 5766 5763 5761 5758 5756 5754 5753 5751 5749 5748 5746 5745
5723 5723 5725 5728 5731 5736 5739 5738 5739 5741 5743 5746 5748 5751 5753 5753 5753 5753 5754 5758 5759 5759 5764 5764 5764 5777 5786 5786 5787 5786 5784 5783 5782 5780 5779 5778 5780 5780 5780 5780 5780 5779 5779 5779 5779 5779 5778 5778 5778 5778 5777 5776 5776 5776 5776 5777 5776 5776 5776 5775 5775 5774 5773 5772 5771 5770 5769 5767 5766 5765 5765 5764 5763 5761 5759 5757 5755 5752 5750 5748 5747 5745 5743 5742 5741 5740
5716 5716 5718 5722 5725 5728 5729 5729 5732 5734 5735 5738 5741 5745 5746 5745 5747 5747 5747 5750 5749 5751 5758 5755 5756 5772 5781 5781 5782 5781 5779 5777 5775 5775 5775 5773 5774 5773 5773 5774 5773 5772 5772 5770 5770 5770 5770 5770 5770 5769 5769 5768 5768 5769 5770 5770 5770 5770 5769 5769 5769 5768 5767 5766 5765 5764 5763 5761 5760 5759 5758 5757 5756 5755 5753 5751 5749 5746 5744 5742 5740 5739 5737 5736 5735 5735
5710 5711 5713 5715 5717 5720 5722 5722 5724 5727 5729 5731 5735 5738 5739 5740 5741 5739 5740 5742 5739 5745 5752 5746 5748 5767 5777 5776 5776 5775 5773 5771 5769 5770 5771 5769 5769 5769 5768 5767 5765 5764 5764 5762 5762 5762 5762 5761 5761 5761 5760 5760 5762 5762 5763 5763 5763 5763 5763 5763 5763 5762 5760 5759 5758 5757 5756 5755 5753 5752 5751 5750 5749 5748 5746 5744 5743 5740 5738 5736 5734 5733 5732 5730 5729 5729
5705 5705 5708 5710 5710 5713 5716 5718 5721 5724 5725 5725 5729 5732 5734 5735 5734 5733 5735 5733 5732 5741 5745 5738 5742 5761 5771 5769 5768 5769 5768 5765 5763 5763 5764 5764 5764 5763 5762 5761 5759 5758 5756 5755 5754 5754 5753 5753 5753 5753 5753 5753 5754 5755 5755 5756 5756 5756 5756 5756 5755 5755 5753 5752 5751 5751 5750 5748 5746 5744 5743 5743 5743 5742 5740 5738 5736 5734 5732 5730 5728 5727 5726 5725 5724 5723
5697 5698 5701 5704 5705 5708 5711 5712 5715 5718 5717 5718 5722 5725 5726 5727 5727 5728 5727 5725 5730 5736 5734 5733 5740 5750 5759 5761 5761 5763 5762 5758 5757 5756 5754 5757 5758 5757 5756 5756 5754 5752 5750 5748 5747 5746 5746 5745 5745 5745 5746 5746 5746 5746 5747 5747 5748 5749 5749 5749 5748 5747 5746 5744 5744 5743 5742 5741 5739 5737 5736 5736 5736 5735 5733 5731 5729 5728 5726 5724 5723 5722 5720 5719 5718 5716
5690 5692 5695 5699 5701 5704 5704 5704 5708 5710 5710 5711 5715 5717 5718 5719 5720 5720 5719 5723 5729 5726 5723 5733 5738 5736 5745 5755 5757 5757 5753 5750 5752 5750 5746 5748 5750 5749 5749 5748 5747 5746 5743 5741 5740 5739 5739 5740 5739 5739 5739 5739 5737 5738 5739 5740 5740 5740 5740 5740 5739 5738 5737 5736 5735 5735 5734 5733 5731 5729 5730 5730 5729 5728 5726 5725 5724 5723 5721 5720 5718 5717 5715 5713 5711 5710
5685 5687 5690 5694 5695 5698 5699 5698 5701 5704 5704 5705 5708 5710 5712 5712 5713 5714 5715 5721 5723 5716 5717 5730 5731 5725 5734 5747 5751 5748 5743 5744 5747 5744 5741 5741 5740 5739 5740 5739 5739 5738 5736 5734 5733 5733 5733 5734 5734 5733 5732 5731 5730 5731 5733 5734 5733 5732 5731 5730 5729 5729 5728 5727 5727 5727 5726 5725 5724 5722 5723 5723 5722 5721 5720 5719 5718 5717 5716 5715 5713 5711 5710 5708 5706 5704
5679 5682 5686 5687 5688 5692 5694 5693 5696 5697 5696 5697 5699 5701 5703 5705 5707 5709 5712 5715 5714 5709 5712 5721 5720 5719 5728 5737 5740 5739 5737 5737 5738 5736 5736 5736 5733 5731 5731 5730 5731 5730 5729 5729 5728 5727 5727 5727 5726 5725 5724 5724 5725 5725 5727 5727 5726 5726 5725 5723 5721 5720 5720 5720 5719 5719 5718 5718 5717 5715 5715 5716 5715 5714 5713 5712 5712 5711 5710 5709 5707 5706 5704 5702 5701 5699
5673 5677 5680 5680 5680 5684 5688 5689 5689 5690 5690 5689 5691 5692 5695 5698 5701 5703 5705 5706 5705 5704 5708 5712 5710 5713 5723 5727 5727 5731 5731 5726 5726 5728 5730 5730 5728 5726 5723 5722 5723 5722 5722 5723 5722 5722 5721 5719 5718 5717 5717 5718 5718 5718 5719 5719 5719 5719 5719 5717 5716 5714 5713 5713 5713 5713 5712 5711 5710 5708 5708 5708 5708 5708 5707 5706 5705 5704 5703 5702 5701 5699 5697 5696 5695 5693
5668 5670 5673 5674 5673 5677 5685 5685 5683 5684 5684 5681 5682 5686 5690 5693 5695 5696 5697 5698 5699 5700 5702 5702 5701 5708 5718 5719 5716 5721 5723 5718 5718 5723 5724 5724 5723 5719 5715 5714 5714 5714 5715 5716 5716 5716 5715 5712 5711 5711 5711 5712 5711 5711 5711 5711 5711 5712 5712 5711 5710 5709 5708 5708 5707 5706 5706 5705 5703 5702 5701 5700 5700 5700 5699 5699 5697 5696 5695 5694 5693 5692 5690 5689 5688 5686
5663 5664 5666 5668 5666 5671 5680 5678 5676 5677 5672 5670 5679 5688 5689 5689 5688 5688 5688 5690 5693 5693 5691 5691 5694 5702 5709 5709 5707 5711 5714 5712 5713 5715 5716 5716 5714 5708 5705 5706 5707 5707 5708 5708 5708 5709 5708 5706 5705 5706 5706 5705 5705 5704 5704 5704 5704 5704 5704 5704 5704 5703 5702 5701 5700 5699 5699 5697 5696 5696 5695 5693 5693 5692 5691 5691 5689 5688 5687 5686 5685 5684 5682 5681 5680 5679
5657 5658 5660 5661 5659 5665 5672 5670 5667 5664 5659 5667 5683 5688 5685 5684 5683 5681 5682 5685 5687 5685 5682 5682 5687 5692 5696 5699 5700 5702 5705 5705 5703 5706 5710 5708 5701 5696 5697 5700 5703 5701 5698 5697 5700 5702 5701 5701 5701 5701 5701 5700 5699 5698 5697 5697 5697 5697 5697 5696 5696 5696 5695 5694 5693 5692 5691 5690 5689 5688 5687 5686 5686 5685 5684 5683 5682 5681 5679 5678 5677 5676 5674 5673 5672 5671
5650 5651 5653 5653 5654 5659 5663 5662 5656 5651 5656 5671 5681 5680 5679 5680 5678 5675 5676 5678 5679 5677 5676 5676 5678 5681 5685 5688 5691 5694 5696 5695 5694 5699 5704 5697 5688 5687 5691 5695 5696 5694 5691 5691 5694 5695 5694 5694 5695 5695 5695 5694 5694 5693 5691 5690 5690 5689 5689 5688 5688 5688 5688 5687 5687 5685 5684 5683 5682 5681 5680 5679 5679 5678 5677 5676 5674 5673 5672 5670 5669 5668 5667 5665 5664 5663
5643 5645 5646 5646 5647 5650 5652 5651 5646 5646 5656 5668 5672 5674 5676 5675 5672 5669 5668 5670 5673 5672 5670 5669 5670 5673 5675 5677 5682 5686 5686 5685 5688 5692 5691 5685 5683 5685 5688 5689 5689 5687 5687 5688 5688 5687 5687 5687 5687 5688 5689 5688 5687 5687 5685 5684 5683 5683 5682 5681 5680 5680 5679 5679 5679 5678 5677 5677 5676 5674 5673 5672 5672 5671 5670 5668 5667 5665 5664 5663 5661 5660 5659 5657 5656 5655
5635 5637 5639 5638 5638 5640 5641 5641 5642 5643 5648 5658 5668 5674 5673 5668 5666 5662 5657 5661 5667 5664 5661 5662 5663 5664 5667 5670 5674 5677 5677 5677 5682 5684 5678 5677 5682 5683 5682 5683 5682 5681 5682 5682 5680 5680 5680 5680 5681 5681 5681 5681 5680 5679 5678 5677 5676 5676 5675 5675 5673 5672 5672 5671 5671 5670 5670 5670 5669 5667 5666 5665 5664 5663 5662 5661 5659 5658 5656 5655 5653 5652 5651 5649 5648 5646
5627 5629 5631 5630 5631 5633 5633 5633 5634 5633 5637 5653 5669 5672 5665 5659 5658 5653 5646 5650 5658 5658 5655 5656 5656 5657 5660 5662 5665 5669 5669 5668 5674 5675 5669 5670 5676 5676 5674 5676 5675 5674 5675 5675 5674 5674 5673 5673 5673 5673 5672 5673 5672 5670 5670 5670 5669 5669 5668 5667 5666 5666 5665 5664 5663 5662 5662 5662 5661 5660 5659 5657 5656 5655 5654 5652 5651 5650 5648 5647 5645 5644 5643 5641 5640 5639
5619 5620 5622 5622 5622 5625 5626 5625 5625 5625 5631 5650 5664 5663 5655 5650 5648 5644 5636 5638 5650 5653 5651 5651 5650 5649 5652 5654 5656 5660 5660 5659 5665 5667 5661 5662 5668 5669 5667 5668 5668 5667 5667 5666 5666 5667 5666 5666 5666 5665 5665 5665 5664 5663 5662 5661 5661 5661 5661 5660 5659 5659 5658 5657 5656 5655 5655 5654 5653 5652 5651 5649 5648 5647 5645 5644 5643 5641 5640 5639 5637 5636 5635 5633 5632 5630
5611 5612 5614 5613 5614 5618 5619 5617 5617 5618 5628 5644 5654 5652 5646 5641 5639 5634 5627 5630 5643 5647 5644 5644 5642 5640 5643 5645 5647 5650 5650 5651 5657 5658 5653 5654 5660 5661 5660 5661 5661 5660 5659 5658 5657 5658 5658 5659 5659 5659 5658 5657 5656 5655 5654 5653 5654 5653 5653 5652 5652 5651 5650 5649 5649 5648 5647 5646 5645 5644 5643 5641 5640 5638 5637 5635 5634 5633 5631 5630 5628 5627 5626 5624 5623 5622
5603 5604 5605 5606 5608 5611 5611 5609 5609 5613 5623 5637 5643 5641 5637 5632 5626 5621 5620 5626 5634 5634 5634 5636 5633 5631 5634 5637 5638 5641 5642 5643 5647 5649 5646 5646 5649 5651 5652 5651 5651 5651 5651 5651 5650 5649 5650 5651 5651 5651 5651 5650 5649 5648 5647 5646 5646 5645 5645 5645 5644 5643 5642 5641 5641 5640 5638 5638 5637 5635 5634 5633 5631 5630 5628 5626 5625 5624 5622 5621 5619 5618 5616 5615 5614 5613
5596 5597 5596 5598 5601 5604 5604 5604 5602 5605 5617 5629 5632 5631 5628 5621 5613 5611 5615 5620 5621 5621 5625 5627 5624 5623 5625 5626 5629 5632 5633 5634 5636 5638 5637 5636 5637 5641 5642 5642 5642 5642 5641 5641 5641 5641 5642 5643 5643 5642 5642 5642 5641 5640 5638 5637 5637 5637 5636 5636 5635 5634 5633 5633 5632 5630 5630 5629 5627 5626 5625 5624 5622 5621 5619 5617 5616 5615 5613 5612 5610 5608 5607 5606 5605 5603
5590 5589 5589 5592 5596 5596 5596 5595 5594 5599 5611 5621 5622 5619 5616 5610 5605 5605 5608 5610 5610 5612 5615 5617 5616 5616 5615 5616 5618 5621 5623 5625 5625 5625 5627 5626 5625 5627 5630 5631 5633 5633 5632 5632 5632 5631 5632 5633 5634 5634 5633 5633 5632 5631 5629 5628 5628 5627 5627 5626 5625 5624 5624 5623 5622 5621 5620 5619 5618 5617 5615 5614 5612 5611 5610 5608 5607 5605 5604 5602 5601 5599 5598 5596 5595 5594
5581 5582 5582 5586 5590 5588 5586 5587 5589 5596 5604 5609 5609 5607 5604 5601 5600 5599 5600 5602 5602 5603 5605 5606 5607 5607 5607 5607 5609 5610 5612 5614 5615 5615 5615 5615 5615 5616 5618 5620 5622 5623 5623 5622 5621 5620 5621 5622 5623 5624 5623 5622 5621 5620 5620 5618 5618 5618 5617 5616 5614 5613 5613 5612 5611 5611 5610 5608 5607 5606 5605 5603 5602 5601 5600 5598 5597 5595 5594 5592 5591 5589 5587 5586 5585 5584
5574 5576 5577 5580 5581 5580 5580 5582 5586 5591 5595 5596 5598 5598 5595 5593 5594 5594 5595 5597 5596 5596 5598 5598 5597 5597 5597 5598 5599 5601 5603 5605 5606 5606 5606 5605 5607 5607 5607 5608 5610 5611 5613 5613 5611 5610 5610 5611 5612 5613 5612 5611 5609 5608 5608 5607 5607 5608 5607 5605 5604 5603 5602 5601 5600 5599 5599 5597 5597 5595 5594 5593 5592 5590 5589 5588 5586 5585 5583 5581 5580 5578 5577 5575 5574 5573
5568 5569 5570 5573 5573 5572 5574 5578 5581 5585 5587 5588 5589 5589 5587 5585 5586 5586 5588 5589 5588 5589 5591 5591 5590 5590 5588 5588 5590 5592 5594 5595 5596 5597 5597 5597 5599 5599 5598 5598 5598 5599 5601 5603 5603 5601 5601 5601 5601 5601 5601 5601 5599 5597 5597 5596 5596 5596 5596 5594 5593 5592 5591 5589 5588 5587 5587 5586 5585 5584 5583 5582 5581 5579 5578 5577 5575 5574 5572 5570 5569 5567 5566 5564 5563 5562
5561 5562 5563 5565 5566 5567 5570 5574 5577 5578 5578 5580 5581 5580 5579 5579 5578 5578 5578 5578 5579 5581 5582 5582 5583 5582 5581 5581 5582 5583 5585 5586 5585 5586 5587 5588 5590 5591 5590 5589 5588 5589 5590 5591 5592 5592 5592 5592 5591 5590 5591 5591 5589 5587 5587 5587 5585 5584 5584 5583 5582 5581 5580 5579 5578 5576 5575 5575 5574 5573 5572 5571 5570 5569 5568 5566 5564 5563 5561 5559 5558 5557 5555 5554 5552 5551
5554 5554 5555 5557 5559 5561 5564 5568 5571 5569 5568 5570 5572 5572 5572 5571 5570 5568 5567 5566 5568 5571 5572 5572 5573 5574 5574 5575 5574 5573 5576 5577 5575 5575 5577 5579 5580 5581 5581 5580 5580 5581 5580 5580 5580 5581 5581 5581 5581 5580 5581 5581 5580 5578 5578 5578 5576 5575 5574 5573 5572 5570 5570 5569 5567 5566 5565 5564 5563 5562 5561 5561 5560 5559 5557 5556 5554 5552 5551 5550 5548 5547 5546 5544 5542 5541
5544 5545 5549 5551 5552 5554 5558 5561 5562 5559 5557 5559 5562 5563 5563 5561 5559 5558 5557 5556 5558 5561 5563 5565 5565 5566 5566 5566 5564 5563 5564 5566 5566 5566 5567 5569 5571 5571 5570 5571 5571 5572 5572 5571 5569 5569 5570 5570 5570 5570 5571 5572 5570 5569 5569 5568 5567 5566 5565 5563 5562 5561 5560 5559 5558 5557 5556 5555 5554 5553 5552 5551 5550 5549 5548 5547 5545 5544 5542 5541 5540 5538 5537 5535 5534 5533
5538 5538 5542 5543 5542 5545 5551 5552 5550 5547 5547 5550 5552 5552 5552 5550 5548 5548 5549 5550 5551 5553 5555 5557 5557 5557 5556 5555 5554 5552 5552 5554 5556 5555 5556 5559 5560 5560 5560 5561 5561 5562 5563 5562 5560 5559 5559 5559 5558 5559 5561 5561 5560 5559 5559 5559 5557 5556 5555 5553 5552 5551 5550 5549 5549 5548 5547 5546 5545 5545 5544 5543 5542 5541 5540 5539 5537 5536 5535 5533 5532 5531 5530 5529 5528 5526
5532 5532 5533 5531 5530 5534 5540 5541 5538 5536 5538 5541 5542 5541 5539 5538 5539 5540 5541 5542 5542 5543 5545 5546 5546 5547 5547 5546 5545 5542 5541 5542 5544 5543 5545 5547 5549 5549 5550 5550 5551 5552 5553 5552 5551 5550 5549 5549 5548 5548 5549 5548 5548 5548 5548 5548 5547 5546 5545 5543 5542 5541 5541 5540 5540 5539 5539 5538 5537 5537 5537 5535 5534 5533 5532 5531 5531 5529 5528 5526 5525 5524 5523 5522 5521 5519